{"data":{"norad_id":56459,"epoch":"2026-09-20T14:11:01.321728Z","epoch_age_seconds":104066,"freshness":"FRESH","line1":"1 56459U 23064M   26263.59098752  .00000142  00000+0  19682-4 0  9994","line2":"2 56459  70.0011  12.9095 0003313 268.4022  91.6757 14.98331129184436","mean_motion":14.98331129,"eccentricity":0.0003313,"inclination_deg":70.0011,"raan_deg":12.9095,"arg_perigee_deg":268.4022,"mean_anomaly_deg":91.6757,"bstar":1.9682e-5,"rev_number":18443,"period_min":96.106926708589,"perigee_km":569.74980185915,"apogee_km":574.35499735533,"semimajor_km":6950.1893996072,"source":"CELESTRAK","updated_at":"2026-09-21T09:00:33.443114Z"}}